Helicity
118 159 161 159 71 75 139 129 246 199 102 100 130 168 140 59 60 40 52 55 64 74
75 96 76 80 49 47 95 132 252 289 239 155 134 158 99 53 22 36 38 31 64 110
62 47 33 49 57 45 76 101 122 126 177 124 105 90 88 25 -19 -19 39 56 101 180
57 48 28 18 27 39 52 88 84 57 67 51 53 44 58 27 -15 30 44 100 143 214
57 67 60 34 39 53 77 147 159 140 93 62 44 39 41 26 27 42 98 139 193 142
83 83 85 92 83 57 38 62 69 98 168 204 215 185 167 131 127 142 189 303 302 196
144 137 125 122 96 108 112 98 74 81 93 109 119 182 212 233 238 272 302 307 329 333
201 146 114 103 98 94 125 145 114 115 115 150 176 136 148 193 196 243 262 238 314 400
135 144 119 117 139 146 154 142 119 123 127 128 131 173 238 227 232 167 216 227 208 217
98 87 58 58 91 117 142 152 162 165 156 139 101 121 187 203 200 202 198 205 293 333
93 69 68 83 93 104 121 116 118 122 133 159 169 161 189 196 190 179 245 330 393 410
102 104 110 108 105 118 138 149 151 153 120 134 175 235 240 291 415 475 468 468 460 480
120 117 124 112 128 152 175 222 297 328 308 285 282 255 246 346 426 481 513 546 536 492
144 136 163 250 324 308 368 410 373 377 451 404 349 368 421 437 440 483 569 613 668 623
Wind_Speed
44 36 42 49 57 56 50 49 38 35 39 53 42 41 39 47 48 49 46 43 39 48
43 42 45 52 52 50 47 38 32 32 34 35 39 36 34 38 40 52 57 56 58 55
41 42 44 46 53 55 50 44 35 35 39 43 40 38 38 40 43 44 49 58 62 60
38 39 41 41 42 42 44 42 43 38 40 45 45 41 42 43 45 47 50 52 55 64
38 38 36 39 42 43 43 45 44 46 48 49 48 46 47 49 48 48 50 51 57 66
38 42 44 44 44 41 40 38 42 44 47 47 52 52 52 54 53 52 55 56 62 71
36 39 38 35 39 40 40 39 41 43 43 43 44 50 51 52 54 56 59 61 63 61
33 34 34 34 34 34 35 38 39 41 43 44 42 42 48 51 54 60 67 66 66 61
29 32 36 36 36 35 35 36 37 40 42 44 47 48 50 54 57 58 64 64 64 59
27 28 30 32 34 34 35 36 37 40 43 47 50 53 55 57 61 63 61 64 62 62
29 28 28 30 33 35 36 37 38 41 42 46 48 48 48 49 54 60 60 59 56 56
34 32 31 31 30 31 36 41 44 45 46 49 50 52 49 48 50 51 54 54 50 46
33 34 34 31 30 28 30 40 43 46 52 57 59 57 50 44 46 48 48 46 44 40
36 36 37 35 34 31 33 36 43 47 51 55 54 51 44 41 42 41 40 41 40 33
Wind_Direction
167 168 175 179 182 184 185 187 196 210 203 205 223 255 253 254 265 272 276 278 278 285
171 172 174 178 183 187 189 196 208 218 225 210 211 223 233 236 247 271 277 278 280 281
175 177 177 178 184 188 192 196 209 219 222 217 219 224 234 233 234 245 271 278 278 277
178 180 182 185 189 193 196 198 206 212 216 216 221 229 245 238 237 261 267 271 273 276
186 186 191 195 195 196 199 203 207 210 216 220 227 235 242 241 242 250 262 268 276 282
196 196 198 199 200 203 211 219 222 220 223 229 235 239 248 249 251 254 266 272 279 285
207 207 210 211 208 211 214 219 220 225 235 247 247 253 252 256 260 264 268 272 276 279
225 223 227 230 230 231 232 230 231 235 237 247 248 246 262 269 271 274 277 277 279 277
243 235 232 241 246 247 249 247 247 248 251 255 256 256 257 262 269 277 279 279 282 282
237 240 239 246 251 251 257 265 261 264 265 263 267 270 268 269 272 276 279 281 282 285
238 230 241 247 253 261 267 272 278 281 279 279 278 276 273 268 268 272 279 283 282 282
254 248 247 243 245 257 271 279 284 289 289 287 288 287 282 280 283 282 285 288 286 283
261 251 249 250 254 260 268 285 292 294 297 296 294 295 292 286 286 284 286 291 291 287
271 269 265 266 273 276 281 287 293 298 302 301 301 301 297 293 290 286 287 291 293 295